Flag for U.S.A. Weather past 2 weeks in Butte, Montana, U.S.A.

Now
52 °F

Clear.


Feels Like: 50 °F
Forecast: 44 / 71 °F
Wind: 7 mph from Southeast

Location: Mooney Airport

Current Time: Jul 26, 2014 at 1:45:03 AM

Latest Report: Jul 26, 2014 at 12:53 AM


Visibility: 10 mi

Pressure: 30.07 "Hg

Humidity: 47%

Dew point: 32 °F

Location of ButteLocation

Historic Weather in Butte — Graph

°F

Butte temperature yesterday

Maximum temperature yesterday: 75 °F (at 3:53 PM)
Minimum temperature yesterday: 37 °F (at 5:53 AM)
Average temperature yesterday: 59 °F

Past Weeks' High & Low Weather Summary

 TemperatureHumidityPressure
High85 °F (Jul 17, 5:53 PM)96% (Jul 16, 4:53 AM)30.25 "Hg (Jul 16, 4:53 AM)
Low37 °F (Jul 25, 5:53 AM)11% (Jul 20, 5:53 PM)29.67 "Hg (Jul 20, 7:53 PM)
Average66 °F49%29.97 "Hg
* Reported Jul 11 12:53 AM — Jul 26 12:53 AM, Butte, Weather by CustomWeather, © 2014

Note: Actual official high and low records may vary slightly from our data, if they occured in-between our weather recording intervals... More about our weather records

Advertising

Butte weather history for previous 24 hours

 ConditionsComfort  
Time TempWeatherWind HumidityBarometerVisibility
12:53 AM
Jul 26
52 °FClear.7 mph47%30.07 "Hg10 mi
11:53 PM
Jul 25
57 °FClear.7 mph39%30.04 "Hg10 mi
10:53 PM60 °FClear.5 mph27%30.03 "Hg10 mi
9:53 PM63 °FSunny.7 mph24%30.01 "Hg10 mi
8:53 PM68 °FSunny.16 mph19%29.98 "Hg10 mi
7:53 PM71 °FSunny.17 mph17%29.98 "Hg10 mi
6:53 PM74 °FSunny.17 mph17%29.98 "Hg10 mi
5:53 PM74 °FSunny.16 mph17%29.98 "Hg10 mi
4:53 PM74 °FSunny.15 mph17%29.97 "Hg10 mi
3:53 PM75 °FSunny.16 mph14%29.96 "Hg10 mi
2:53 PM73 °FSunny.14 mph17%29.96 "Hg10 mi
1:53 PM72 °FSunny.12 mph19%29.94 "Hg10 mi
12:53 PM68 °FSunny.6 mph24%29.96 "Hg10 mi
11:53 AM65 °FSunny.7 mph29%29.98 "Hg10 mi
10:53 AM62 °FSunny.6 mph35%30.00 "Hg10 mi
9:53 AM58 °FSunny.3 mph39%30.02 "Hg10 mi
8:53 AM52 °FSunny.3 mph53%30.04 "Hg10 mi
7:53 AM44 °FSunny.No wind65%30.06 "Hg10 mi
6:53 AM37 °FClear.3 mph76%30.06 "Hg10 mi
5:53 AM37 °FClear.5 mph76%30.06 "Hg10 mi
4:53 AM38 °FClear.6 mph73%30.06 "Hg10 mi
3:53 AM40 °FClear.5 mph70%30.04 "Hg10 mi
2:53 AM43 °FClear.5 mph65%30.04 "Hg10 mi
1:53 AM49 °FClear.3 mph52%30.02 "Hg10 mi
Weather by CustomWeather, © 2014

See weather overviewHow to use our weather pages